Location: Le Pontet
(43.9663°N, 4.8604°E)
Time: 07:02:57
(UTC+00:00)

Daily predictions for brighter satellites

Satellite Brightness Start Highest point End
(mag) Time Altitude Azimuth Time Altitude Azimuth Time Altitude Azimuth
COSMOS 2455 4.4 16:28:10 10° NW 16:33:48 42° WSW 16:39:23 10° S
Cosmos 1500 Rocket 3.7 16:29:38 10° N 16:33:56 52° ENE 16:38:15 10° SSE
Meteor 2-2 Rocket 4.4 16:28:22 10° S 16:34:17 68° E 16:40:09 10° NNE
YAOGAN 6 2.8 16:31:16 10° SSE 16:34:50 52° ENE 16:38:23 10° N
CZ-4C R/B 3.1 16:36:03 10° NNE 16:39:42 82° ESE 16:43:18 10° S
NOSS 2-1 (C) 4.4 16:34:35 10° NNW 16:39:43 73° NE 16:47:00 10° SE
Cosmos 405 Rocket 2.8 16:38:18 10° N 16:42:09 55° ENE 16:46:03 10° SSE
ADEOS Rocket 3.8 16:37:11 10° NNE 16:44:53 85° WNW 16:52:40 10° SSW
NOSS 2-1 (D) 4.4 16:40:01 10° NW 16:45:12 79° NE 16:52:33 10° SE
Cosmos 405 3.3 16:41:46 10° SSW 16:45:14 71° W 16:48:44 10° N
Cosmos 389 Rocket 3.8 16:43:26 10° SE 16:45:59 20° E 16:48:31 10° NE
Cosmos 372 Rocket 4.3 16:41:15 10° NNW 16:46:24 74° WSW 16:51:33 10° SSE
Cosmos 1943 Rocket 3.8 16:44:09 10° NNE 16:46:57 14° NE 16:49:45 10° ENE
H-2A R/B 2.6 16:45:41 10° SSE 16:50:03 84° WSW 16:54:19 10° NNW
BREEZE-M DEB (TANK) 1.9 16:48:48 10° WSW 16:51:09 54° NNW 16:53:03 12° ENE
SL-16 R/B 3.5 16:48:46 10° SE 16:52:48 20° E 16:56:51 10° NE
NOAA 6 4.3 16:49:28 10° S 16:54:37 75° WSW 16:59:47 10° NNW
USA 215 3.5 16:48:23 10° NE 16:54:49 57° SE 17:01:13 10° SSW
CZ-2C R/B 4.4 16:52:27 10° E 16:55:33 16° ENE 16:58:35 10° NNE
Cosmos 1743 Rocket 3.6 16:51:49 10° N 16:56:18 87° W 17:00:44 10° S
COSMO-SKYMED 1 3.9 16:53:18 10° NE 16:56:37 21° E 16:59:56 10° SE
Okean-O 4.2 16:54:23 10° E 16:56:51 15° ENE 16:59:18 10° NNE
PAYLOAD B 4.5 16:51:54 10° SSE 16:57:30 79° WSW 17:03:07 10° NNW
ATLAS 5 CENTAUR R/B 4.3 16:52:10 10° NW 16:57:31 36° WSW 17:03:32 10° S
Cosmos 2298 Rocket 4.0 16:52:42 10° NNW 16:58:03 86° ENE 17:03:21 10° SSE
Cosmos 2150 Rocket 3.9 16:54:16 10° NNW 16:59:27 82° ENE 17:04:35 10° SSE
AQUARIUS 4.1 16:56:17 10° SSE 17:00:44 67° ENE 17:05:12 10° N
Cosmos 1818 3.5 16:55:16 10° NNW 17:00:45 70° NE 17:06:11 10° SE
Cosmos 1606 3.3 16:59:55 10° SSE 17:03:31 37° E 17:07:09 10° NNE
Sich 1 3.4 17:01:13 10° N 17:05:26 43° ENE 17:09:35 10° SSE
BREEZE-M TANK 3.4 16:59:44 10° WNW 17:06:08 56° SSW 17:09:22 10° SE
Okean O Rocket 1.5 17:03:24 10° SSE 17:07:44 81° ENE 17:12:08 10° NNW
Cosmos 2333 Rocket 3.6 17:03:06 10° WSW 17:08:19 36° NW 17:13:32 10° N
Helios 1A Rocket 4.3 17:07:31 13° E 17:09:25 17° ENE 17:12:02 10° NNE
Radarsat Rocket 4.4 17:04:26 10° S 17:10:20 71° WSW 17:16:50 10° NNW
Nadezhda 1 Rocket 4.1 17:04:41 10° S 17:11:00 86° W 17:17:27 10° N
ISS -3.7 17:07:52 10° WSW 17:11:13 72° NNW 17:13:33 18° NE
COSMOS 2428 3.9 17:08:21 10° SW 17:13:45 42° WNW 17:19:11 10° NNE
Cosmos 1125 Rocket 3.4 17:09:02 10° NNW 17:14:16 77° ENE 17:19:28 10° SSE
Cosmos 1356 3.8 17:11:54 10° N 17:15:08 39° ENE 17:18:22 10° SE
Feng Yun 1-1 Rocket 4.5 17:10:03 10° SE 17:15:38 50° ENE 17:21:07 10° N
Cosmos 1805 Rocket 3.5 17:11:56 10° N 17:16:24 77° E 17:20:49 10° SSE
SAR-Lupe-4 4.5 17:15:58 17° NE 17:17:56 28° E 17:21:04 10° SSE
CZ-4B R/B 1.2 17:17:16 11° NNE 17:20:13 57° E 17:23:15 10° S
Cosmos 1151 Rocket 3.8 17:17:07 10° SSE 17:20:48 29° E 17:23:24 16° NE
Cosmos 2278 Rocket 2.6 17:15:47 10° NNW 17:21:27 69° WSW 17:27:04 10° SSE
Cosmos 1666 Rocket 3.9 17:18:23 10° N 17:22:35 41° ENE 17:26:46 10° SSE
IRS-1C Rocket 4.3 17:20:05 10° SE 17:25:05 45° ENE 17:30:07 10° N
Cosmos 2154 Rocket 4.4 17:19:27 10° NNW 17:25:45 70° W 17:32:03 10° S
Cosmos 1328 Rocket 4.3 17:23:00 10° SSE 17:26:43 29° E 17:28:37 21° NE
USA 267 3.5 17:21:44 13° E 17:27:17 51° NNE 17:33:35 10° NW
Lacrosse 5 rocket 2.4 17:24:43 10° S 17:27:33 21° SE 17:28:08 21° ESE
Cosmos 962 Rocket 4.4 17:22:06 10° N 17:28:26 76° E 17:34:38 10° SSE
ERS-2 2.0 17:29:54 10° NNE 17:33:35 78° ESE 17:37:14 10° S
NOSS 0 Rocket 4.5 17:27:27 10° SW 17:33:36 59° WNW 17:39:47 10° NNE
CZ-2D R/B 3.6 17:31:10 10° SE 17:34:44 40° ENE 17:38:20 10° N
Cosmos 2341 Rocket 3.9 17:28:28 10° N 17:34:46 76° E 17:41:05 10° SSE
SAR-Lupe-1 4.4 17:33:32 26° NE 17:35:09 43° E 17:38:34 10° S
SL-24 R/B 4.2 17:32:45 19° NE 17:35:16 40° E 17:38:49 10° SSE
Meteor 1-25 Rocket 4.3 17:29:58 10° N 17:35:26 50° ENE 17:40:55 10° SSE
CZ-4 R/B 2.1 17:38:23 30° ENE 17:38:23 30° ENE 17:41:34 10° N
Cosmos 2219 Rocket 4.2 17:34:58 10° WSW 17:39:32 24° NW 17:44:05 10° N
TELKOM 3 3.2 17:38:46 10° WSW 17:41:26 58° NNW 17:41:32 57° NNW
SMAP 4.4 17:37:11 10° S 17:41:34 42° W 17:46:00 10° NNW
H-2A R/B 3.8 17:38:07 10° N 17:41:47 31° WNW 17:45:29 10° SW
CZ-3B R/B 3.2 17:40:27 10° S 17:42:22 15° SSE 17:42:22 15° SSE
CZ-4B R/B 4.3 17:37:40 10° S 17:42:47 45° W 17:47:53 10° NNW
BREEZE-M DEB (TANK) 1.5 17:40:47 10° WSW 17:43:12 71° NNW 17:43:12 71° NNW
SKYMED 2 3.5 17:40:44 11° NNE 17:44:57 68° E 17:49:16 10° S
USA 81 4.0 17:41:08 10° N 17:46:23 64° E 17:51:37 10° SSE
CREW DRAGON DEMO-1 DEB 3.7 17:45:20 10° NW 17:47:43 35° N 17:47:43 35° N
Cosmos 2237 Rocket 2.9 17:43:04 10° SW 17:48:34 54° WNW 17:54:06 10° NNE
Cosmos 2285 Rocket 4.1 17:43:25 10° NNW 17:49:43 56° ENE 17:55:56 10° SE
Cosmos 1939 Rocket 2.7 17:46:32 10° SSE 17:50:22 89° WSW 17:54:18 10° NNW
Cosmos 1633 Rocket 2.9 17:48:57 10° N 17:53:20 73° E 17:57:41 10° SSE
H-2A R/B 2.6 17:52:26 32° E 17:53:31 36° ENE 17:58:15 10° N
Cosmos 773 Rocket 4.2 17:52:35 10° S 17:57:37 50° ESE 17:59:15 37° NE
SL-8 Rocket 3.9 17:52:41 10° N 17:58:56 87° E 18:05:13 10° S
Cosmos 864 Rocket 4.4 17:52:38 10° N 17:58:58 69° E 18:05:12 10° SSE
CSL-04 Rocket 4.1 18:01:44 37° ENE 18:01:44 37° ENE 18:06:13 10° N
USA 281 3.1 17:54:53 10° SE 18:01:24 72° ENE 18:07:57 10° NNW
Cosmos 2369 Rocket 3.2 17:58:05 10° N 18:02:10 28° NE 18:02:10 28° NE
Cosmos 783 Rocket 4.4 17:58:51 10° SSW 18:04:08 80° ESE 18:07:10 26° NNE
Cosmos 2181 Rocket 4.0 17:57:42 10° S 18:04:10 88° WNW 18:10:35 10° N
MOS 1 Rocket 3.7 18:03:47 29° NE 18:06:24 54° E 18:11:42 10° S
Abrixas rocket 4.2 18:05:45 10° W 18:07:47 19° SW 18:08:24 17° SSW
Cosmos 1959 Rocket 4.4 18:01:38 10° N 18:08:02 84° E 18:14:24 10° S
YAOGAN 1 2.6 18:21:24 68° N 18:21:24 68° N 18:25:13 10° N
Cosmos 1689 Rocket 4.3 18:25:21 23° SW 18:25:21 23° SW 18:26:44 10° SW
SL-08 R/B 4.3 18:21:31 10° N 18:27:41 74° E 18:33:46 10° SSE
Cosmos 2297 3.8 18:23:00 10° NNW 18:28:41 74° WSW 18:34:09 11° SSE
Cosmos 1470 Rocket 4.2 18:24:24 10° N 18:35:05 - S 18:27:22 43° NNW
Cosmos 1943 Rocket 2.0 18:26:11 10° NNW 18:31:41 71° ENE 18:31:41 71° ENE
Cosmos 44 3.4 18:26:41 10° NW 18:32:01 89° NE 18:32:40 70° SE
Meteor 1-14 Rocket 4.2 18:26:09 10° N 18:32:07 81° E 18:38:07 10° SSE
Okean-O 3.0 18:28:25 10° S 18:32:48 63° WSW 18:37:13 10° NNW
COSMO-SKYMED 1 3.9 18:29:20 13° N 18:32:54 37° WNW 18:36:54 10° SW
CZ-2C R/B 3.2 18:29:47 10° S 18:34:57 68° WSW 18:39:54 10° NNW
ARGOS 4.2 18:38:30 32° N 18:38:30 32° N 18:41:23 10° N
Cosmos 1867 4.3 18:30:51 10° SW 18:36:06 49° NW 18:37:58 35° N
SL-16 R/B 2.6 18:30:48 10° SW 18:36:23 61° WNW 18:38:47 34° N
USA 215 3.8 18:35:12 34° NNE 18:37:47 53° NNW 18:44:04 10° WSW
Helios 1A Rocket 4.0 18:43:48 42° WSW 18:44:14 43° W 18:48:06 10° NNW
Cosmos 1782 4.4 18:41:03 10° SSW 18:43:16 30° SW 18:43:16 30° SW
ISS -0.8 18:45:37 10° WNW 18:46:31 15° WNW 18:46:31 15° WNW
Lacrosse 5 rocket 3.9 19:02:57 10° WSW 19:03:47 16° WSW 19:03:47 16° WSW
USA 267 3.6 19:09:07 52° S 19:10:15 58° SW 19:16:41 10° NW
CZ-4 R/B 4.0 19:14:25 18° WNW 19:14:25 18° WNW 19:16:10 10° NW
ATLAS CENTAUR R/B 4.2 19:07:17 10° NW 19:25:14 64° WSW 19:27:27 50° S
H-2A R/B 3.7 19:33:04 32° W 19:33:04 32° W 19:37:36 10° NNW
Cosmos 2369 Rocket 4.2 19:41:50 10° NW 19:43:59 23° NW 19:43:59 23° NW
